Location: La Brionne
(46.1728°N, 1.7849°E)
Time: 21:06:20
(UTC+00:00)

Spot 2 Rocket - Pass Details

Date: 16 June 2021
Orbit: 757 x 772 km, 98.5° (Epoch: 02 August)

Event Time Altitude Azimuth Distance (km) Brightness Sun altitude
Exits shadow 21:17:53 13° 172° (S) 2,097 5.2 -12.0°
Maximum altitude 21:22:27 74° 256° (WSW) 796 3.6 -12.5°
Drops below altitude 10° 21:27:33 10° 343° (NNW) 2,313 7.3 -13.0°
Sets 21:29:52 0° 345° (NNW) 3,246 8.3 -13.2°
